Regional Weather Roundup
Issued by NWS

Home | Current Version | Previous Version | Text Only | Print | Product List | Glossary Off
Versions: 1 2 3 4 5 6 7 8 9 10 11 12 13 14 15 16 17 18 19 20 21 22 23 24 25 26 27 28 29 30 31 32 33 34 35 36 37 38 39 40 41 42 43 44 45 46 47 48 49 50

490
ASUS44 KLIX 062005
RWRLA
LOUISIANA WEATHER ROUNDUP
NATIONAL WEATHER SERVICE NEW ORLEANS LA
200 PM CST FRI MAR 06 2015

NOTE: "FAIR" INDICATES FEW OR NO CLOUDS BELOW 12,000 FEET WITH NO
      SIGNIFICANT WEATHER AND/OR OBSTRUCTIONS TO VISIBILITY.
      SKY/WX - SKY CONDITION AND SIGNIFICANT WEATHER.
      TMP - AIR TEMPERATURE.    DP   - DEWPOINT TEMPERATURE.
      RH  - RELATIVE HUMIDITY.  PRES - PRESSURE.
      HX  - HEAT INDEX.         WCI  - WIND CHILL INDEX.

*  THESE STATIONS ARE NOT NWS OR FAA STATIONS AND ARE NOT UNDER
   NWS QUALITY CONTROL.

LAZ040-048-061>063-065-066-069-062100-
SOUTHEAST LOUISIANA

CITY           SKY/WX    TMP DP  RH WIND       PRES   REMARKS
N.O. AUDUBON     N/A     50  22  33 MISG        N/A
N.O. INTL ARPT CLOUDY    50  18  28 N15       30.44F
N.O. LAKEFRONT PTSUNNY   52  20  28 N12       30.44F
SLIDELL        PTSUNNY   53  14  21 N13G18    30.41F
BATON ROUGE    SUNNY     52  13  21 N12G18    30.44F
BOOTHVILLE     MOSUNNY   47  28  47 N9G17     30.42F
BELLE CHASSE   CLOUDY    50  15  24 N10       30.42F
BOGALUSA*        N/A     54  14  20 N14       30.45F
GALLIANO*      FAIR      51  23  33 MISG      30.43F
NEW ROADS*     FAIR      51  14  22 N6        30.46F
GONZALES*      FAIR      52  14  21 N9G16     30.43F
HAMMOND*       MOSUNNY   54   9  16 N13G20    30.45F
HOUMA*         SUNNY     52  19  28 N15       30.43F
PORT FOURCHON* CLEAR     50  25  37 N12G20    30.45F

$$

LAZ041-044-053-054-062100-
SOUTHWEST LOUISIANA

CITY           SKY/WX    TMP DP  RH WIND       PRES   REMARKS
LAKE CHARLES   MOSUNNY   50  18  28 N10       30.47F
LAFAYETTE      MOSUNNY   49  18  29 NE15      30.46F
PATTERSON      MOSUNNY   48  19  32 N9        30.45F
SALT POINT       N/A     50  16  25 VRB6      30.43F
NEW IBERIA     NOT AVBL
CHENAULT AIRPK SUNNY     50  16  25 N9        30.49F

$$

LAZ027-028-062100-
CENTRAL LOUISIANA

CITY           SKY/WX    TMP DP  RH WIND       PRES   REMARKS
FORT POLK      SUNNY     48  14  25 N10       30.48F
ALEXANDRIA INT MOSUNNY   48  14  25 NW9G17    30.49F
ALEXANDRIA     MOSUNNY   51  16  24 NE8       30.49F

$$

LAZ001-002-062100-
NORTHWEST LOUISIANA

CITY           SKY/WX    TMP DP  RH WIND       PRES   REMARKS
SHREVEPORT     MOSUNNY   49  19  30 VRB6      30.52
BARKSDALE AFB  SUNNY     48  16  27 VRB6      30.52
DTN SHREVEPORT SUNNY     48  15  26 N8        30.53F

$$

LAZ014-016-062100-
NORTHEAST LOUISIANA

CITY           SKY/WX    TMP DP  RH WIND       PRES   REMARKS
MONROE         SUNNY     43  21  41 NE9       30.56F
TALLULAH       SUNNY     43  18  36 VRB6      30.54F

$$




USA.gov is the U.S. government's official web portal to all federal, state and local government web resources and services.